Powrót do katalogu

STARLINK-34466

AktywnyŁącznośćVLEO
NORAD 66226·PAYLOAD·🇺🇸 United States

Wystrzelony Oct 28, 2025 z Vandenberg Space Force Base

Loading…

Następne Przeloty (najbliższe 24 godziny)

TLE

ŚwieżeSource: CelesTrak SupGP

Epoka: Sep 14, 2026, 14:25 UTC

1 66226C 25244W   26257.60118056 -.00025218  00000+0 -74495-3 0  2576
2 66226  53.1584  69.0537 0001047  90.0770 151.4499 15.34408658    13

Śledź STARLINK-34466 w czasie rzeczywistym z AllMySat

Download on the App Store